ELECTRON KICK STAGE R/B

基本信息
目录编号:
68293
目录名称:
ELECTRON KICK STAGE R/B
国际标识:
2026-056C
轨道中心:
EARTH
物体状态:
在轨
发射日期:
2026-03-20 UTC
国别:
美国 (US)
轨道信息
数据来源: 国际轨道数据
星历时间: 2026-09-05T09:42:40+0800
半长轴: 6760.547km
偏心率: 0.0104
轨道倾角: 50.283°
近地点辐角: 350.130°
升交点赤经: 268.357°
平近点角: 9.763°
近地点: 312.1km
远地点: 452.72km
周期: 92.200分钟
每日圈数: 15.618168
详细信息
发射场:
RLLC
轨道高度:
LEO
数据来源:
AOE Integration Group
参考系:
TEME
时间系统:
UTC
历元类型:
SGP4
2D轨道图
3D轨道图
轨道高度分析图
轨道倾角分析图
轨道综合分析图
查看轨道综合分析图